Luke Air Force Base, AZ

4:14 PM MST on October 01, 2016 (GMT -0700)
Luke Air Force Base

Weather History for KLUF - January, 2014

Change the Weather History Date:

Friday, January 17, 2014

  Actual Average Record
Temperature  
Mean Temperature 58 °F -  
Max Temperature 75 °F 68 °F 70 °F (2015)
Min Temperature 41 °F 39 °F 37 °F (2016)
Degree Days  
Heating Degree Days 7    
Growing Degree Days 8 (Base 50)    
Moisture  
Dew Point 23 °F    
Average Humidity 30    
Maximum Humidity 55    
Minimum Humidity 10    
Precipitation  
Precipitation 0.00 in - - ()
Sea Level Pressure  
Sea Level Pressure 30.10 in    
Wind  
Wind Speed 5 mph (North)    
Max Wind Speed 13 mph    
Max Gust Speed -    
Visibility 10 miles    
Events      
Averages and records for this station are not official NWS values.
T = Trace of Precipitation, MM = Missing Value Source: NWS Daily Summary

Daily Weather History Graph

Daily Weather History Graph

Search for Another Location

Airport or City:

Trip Planner

Search our weather history database for the weather conditions in past years. The results will help you decide how hot, cold, wet, or windy it might be!

Date:

Astronomy

Jan. 17, 2014 Rise Set
Actual Time 7:33 AM MST 5:46 PM MST
Civil Twilight 7:06 AM MST 6:13 PM MST
Nautical Twilight 6:35 AM MST 6:43 PM MST
Astronomical Twilight 6:06 AM MST 7:13 PM MST
Moon 7:29 PM MST (1/17) 8:09 AM MST (1/17)
Length of Visible Light 11h 07m
Length of Day
10h 13m
Full, 98% of the Moon is Illuminated
Jan 17
Full
Jan 23
Last Quarter
Jan 30
New
Feb 6
First Quarter
Feb 14
Full

Hourly Weather History & Observations

Time (MST) Temp. Windchill Dew Point Humidity Pressure Visibility Wind Dir Wind Speed Gust Speed Precip Events Conditions
12:58 AM 54.3 °F - 18.9 °F 25% 30.08 in 10.0 mi North 9.2 mph - N/A   Clear
1:58 AM 47.8 °F - 23.4 °F 38% 30.08 in 10.0 mi NNW 8.1 mph - N/A   Clear
2:58 AM 50.4 °F - 22.5 °F 34% 30.09 in 10.0 mi NNE 5.8 mph - N/A   Clear
3:58 AM 46.6 °F - 21.6 °F 37% 30.09 in 10.0 mi North 5.8 mph - N/A   Clear
4:58 AM 47.5 °F - 20.1 °F 34% 30.10 in 10.0 mi Calm Calm - N/A   Clear
5:55 AM 41.2 °F - 24.8 °F 52% 30.14 in 10.0 mi Calm Calm - N/A   Clear
6:55 AM 41.2 °F - 26.1 °F 55% 30.17 in 10.0 mi Calm Calm - N/A   Unknown
7:58 AM 41.9 °F 40.0 °F 24.6 °F 50% 30.16 in 10.0 mi NE 3.5 mph - N/A   Clear
8:58 AM 46.8 °F - 26.6 °F 45% 30.18 in 10.0 mi NNW 2.3 mph - N/A   Clear
9:58 AM 56.7 °F - 23.2 °F 27% 30.19 in 10.0 mi Variable 1.2 mph - N/A   Clear
10:58 AM 61.2 °F - 23.7 °F 24% 30.17 in 10.0 mi Calm Calm - N/A   Clear
11:58 AM 66.7 °F - 23.9 °F 20% 30.14 in 10.0 mi ESE 3.5 mph - N/A   Clear
12:58 PM 72.3 °F - 19.9 °F 14% 30.10 in 10.0 mi ESE 4.6 mph - N/A   Clear
1:58 PM 74.3 °F - 14.7 °F 10% 30.07 in 10.0 mi Variable 2.3 mph - N/A   Clear
2:58 PM 75.0 °F - 17.4 °F 11% 30.06 in 10.0 mi Variable 2.3 mph - N/A   Clear
3:58 PM 75.0 °F - 17.4 °F 11% 30.05 in 10.0 mi SSE 3.5 mph - N/A   Clear
4:58 PM 74.7 °F - 17.2 °F 11% 30.04 in 10.0 mi West 5.8 mph - N/A   Clear
5:58 PM 67.8 °F - 25.7 °F 21% 30.05 in 10.0 mi WNW 4.6 mph - N/A   Clear
6:58 PM 60.1 °F - 31.5 °F 34% 30.05 in 10.0 mi NW 3.5 mph - N/A   Clear
7:58 PM 56.7 °F - 30.4 °F 37% 30.05 in 10.0 mi North 2.3 mph - N/A   Clear
8:58 PM 54.1 °F - 30.7 °F 41% 30.07 in 10.0 mi Calm Calm - N/A   Clear
9:58 PM 52.5 °F - 27.7 °F 38% 30.07 in 10.0 mi WNW 2.3 mph - N/A   Clear
10:58 PM 58.5 °F - 22.3 °F 25% 30.06 in 10.0 mi North 12.7 mph - N/A   Clear
11:58 PM 54.3 °F - 23.9 °F 31% 30.06 in 10.0 mi NNW 10.4 mph - N/A   Clear